Flag for U.S.A. Weather past 2 weeks in Canton, Ohio, U.S.A.

Now
83 °F

Scattered clouds.


Feels Like: 82 °F
Forecast: 63 / 80 °F
Wind: 15 mph from Northwest

Location: Akron-Canton Regional Airport

Current Time: Aug 1, 2015 at 2:43:07 PM

Latest Report: Aug 1, 2015 at 1:51 PM


Visibility: 10 mi

Pressure: 29.91 "Hg

Humidity: 37%

Dew point: 54 °F

Location of CantonLocation

Historic Weather in Canton — Graph

°F

Canton temperature yesterday

Maximum temperature yesterday: 86 °F (at 2:51 PM)
Minimum temperature yesterday: 64 °F (at 5:51 AM)
Average temperature yesterday: 76 °F

Past Weeks' High & Low Weather Summary

 TemperatureHumidityPressure
High91 °F (Jul 29, 2:51 PM)94% (Jul 18, 4:51 AM)30.03 "Hg (Jul 18, 4:51 AM)
Low58 °F (Jul 22, 5:51 AM)29% (Jul 23, 6:51 PM)29.70 "Hg (Jul 21, 4:51 AM)
Average76 °F64%29.93 "Hg
* Reported Jul 17 12:51 PM — Aug 1 12:51 PM, Canton, Weather by CustomWeather, © 2015

Note: Actual official high and low records may vary slightly from our data, if they occured in-between our weather recording intervals... More about our weather records

Advertising

Canton weather history for previous 24 hours

 ConditionsComfort  
Time TempWeatherWind HumidityBarometerVisibility
12:51 PM
Sat, Aug 1
82 °FScattered clouds.12 mph40%29.93 "Hg10 mi
11:51 AM79 °FPassing clouds.6 mph45%29.94 "Hg10 mi
10:51 AM76 °FPassing clouds.6 mph48%29.93 "Hg10 mi
9:51 AM75 °FSunny.7 mph55%29.93 "Hg10 mi
8:51 AM70 °FSunny.8 mph64%29.93 "Hg10 mi
7:51 AM67 °FSunny.6 mph71%29.92 "Hg10 mi
6:51 AM63 °FClear.7 mph75%29.90 "Hg10 mi
5:51 AM63 °FClear.7 mph78%29.90 "Hg10 mi
4:51 AM64 °FPassing clouds.7 mph78%29.89 "Hg10 mi
3:51 AM66 °FPassing clouds.7 mph73%29.88 "Hg10 mi
2:51 AM66 °FPassing clouds.6 mph75%29.89 "Hg10 mi
1:51 AM68 °FPassing clouds.8 mph73%29.89 "Hg10 mi
12:51 AM69 °FPassing clouds.6 mph70%29.89 "Hg10 mi
11:51 PM
Fri, Jul 31
71 °FPassing clouds.7 mph66%29.89 "Hg10 mi
10:51 PM74 °FPassing clouds.8 mph60%29.88 "Hg10 mi
9:51 PM75 °FPartly cloudy.5 mph58%29.87 "Hg10 mi
8:51 PM78 °FLight rain. Broken clouds.12 mph50%29.87 "Hg10 mi
7:51 PM80 °FPassing clouds.7 mph44%29.87 "Hg10 mi
6:51 PM83 °FScattered clouds.10 mph38%29.87 "Hg10 mi
5:51 PM84 °FScattered clouds.12 mph36%29.88 "Hg10 mi
4:51 PM86 °FScattered clouds.13 mph33%29.89 "Hg10 mi
3:51 PM86 °FScattered clouds.16 mph36%29.90 "Hg10 mi
2:51 PM86 °FScattered clouds.13 mph37%29.91 "Hg10 mi
Weather by CustomWeather, © 2015

See weather overviewHow to use our weather pages